Parma Airport

Jump to: basic info | weather | frequencies | runways | comments

Related pages: nearby airports | nearby navaids | notams | map

Basic information (top)

Codes: PMF LIMP
Location: lon 44.824501, lat 10.296400, elev 161 ft / 49 m msl
Status: medium_airport
Scheduled airline service: yes
Links: Wikipedia Mobile

Weather (top)

Current conditions (rec'd 2015/04/27 19:50Z):

LIMP 271950Z VRB02KT 9999 BKN015 OVC025 12/11 Q1003

Airport forecast (rec'd 2015/04/27 18:21Z):

TAF LIMP 271700Z 2718/2818 09010KT 8000 BKN010 OVC030 
      TEMPO 2718/2802 4000 RA 
      BECMG 2820/2822 VRB05KT 
      BECMG 2802/2804 SCT025 BKN060 
      BECMG 2808/2810 29010KT

Frequencies (top)

Verify before use: may be inaccurate or out of date.

APP: 126.55 MHz (APP)
TWR: 118.45 MHz (TWR)

Runways (top)

02/20: 6,962 x 148 ft (2,122 x 45 m) — paved — lighted — threshold 02 displaced 702 ft (214 m) — threshold 20 displaced 597 ft (182 m)

Latest comments (top)

LIMP APPROACH frequency: actual APP frequency is 127.575 (the ... [read]

More... (top)

See also NOTAMs and nearby airports and navaids, or visit the Parma Airport page at the main OurAirports website..